STARLINK-11156 [DTC]

Last updated on Mon Oct 14 2024 00:02:03 GMT+0000 (Coordinated Universal Time)

1 61056U 24164G 24287.50124910 .00015749 00000+0 99987-4 0 9991 2 61056 53.1542 316.2048 0001664 81.9554 278.1656 15.76741591 4974

Satellite not in orbit

STARLINK-11156 [DTC]